Temp
-9 -9 -9 -10 -10 -10 -11 -11 -11 -10 -11 -11 -12 -11 -10 -10 -10 -11 -10 -10 -10 -10 -10 -10 -9 -9 -9 -9 -9 -9 -9 -9 -9 -9 -10 -10 -9 -9 -8 -8 -8 -8 -8 -8 -8 -8 -9 -8 -8
-10 -9 -10 -11 -11 -11 -11 -11 -11 -11 -11 -11 -11 -11 -11 -10 -11 -10 -11 -10 -10 -10 -10 -11 -10 -10 -10 -9 -10 -9 -9 -9 -9 -10 -10 -10 -10 -9 -9 -9 -9 -8 -8 -8 -8 -8 -8 -8 -8
-10 -10 -11 -11 -10 -10 -11 -12 -12 -13 -13 -12 -13 -12 -11 -11 -10 -10 -11 -11 -10 -10 -10 -11 -10 -10 -10 -10 -10 -10 -10 -10 -10 -10 -10 -10 -10 -10 -9 -9 -9 -9 -8 -8 -8 -8 -8 -8 -8
-10 -10 -11 -11 -11 -12 -13 -13 -13 -13 -13 -13 -13 -13 -12 -12 -11 -10 -10 -11 -11 -10 -10 -11 -11 -11 -10 -10 -10 -10 -10 -10 -10 -10 -10 -10 -10 -11 -10 -9 -9 -9 -9 -9 -9 -9 -9 -8 -8
-11 -10 -11 -11 -11 -11 -12 -12 -13 -12 -12 -13 -13 -12 -12 -12 -12 -11 -11 -11 -12 -11 -11 -11 -11 -11 -11 -11 -10 -10 -10 -10 -10 -10 -10 -11 -11 -10 -10 -10 -9 -9 -9 -9 -9 -9 -9 -9 -8
-11 -11 -11 -11 -12 -12 -13 -13 -13 -13 -13 -13 -13 -12 -12 -12 -12 -11 -11 -11 -12 -11 -11 -11 -11 -11 -11 -11 -11 -11 -11 -10 -10 -10 -10 -10 -10 -11 -10 -10 -10 -9 -9 -9 -9 -9 -9 -9 -9
-11 -11 -11 -11 -12 -13 -12 -13 -12 -12 -12 -12 -12 -12 -11 -12 -12 -12 -12 -12 -12 -12 -12 -12 -12 -11 -11 -11 -11 -11 -11 -11 -10 -11 -10 -10 -10 -10 -11 -10 -10 -10 -10 -9 -10 -9 -9 -9 -9
-11 -11 -12 -12 -12 -12 -12 -12 -12 -12 -12 -12 -12 -11 -12 -12 -13 -13 -12 -12 -12 -12 -12 -12 -12 -12 -12 -11 -12 -11 -11 -11 -11 -11 -11 -11 -11 -10 -10 -11 -11 -10 -10 -10 -10 -10 -10 -9 -10
-12 -12 -12 -12 -12 -12 -12 -12 -12 -12 -12 -12 -11 -11 -12 -12 -12 -12 -12 -11 -11 -11 -12 -13 -12 -12 -12 -12 -12 -11 -11 -11 -11 -11 -11 -11 -11 -11 -10 -11 -11 -11 -11 -11 -11 -11 -10 -10 -10
-12 -12 -12 -12 -12 -12 -12 -12 -12 -12 -12 -12 -12 -12 -12 -12 -12 -12 -12 -12 -12 -12 -12 -12 -12 -12 -12 -12 -12 -12 -11 -11 -11 -12 -11 -11 -11 -12 -11 -11 -11 -11 -11 -11 -11 -11 -11 -10 -10
-12 -12 -12 -12 -12 -12 -12 -12 -12 -12 -13 -12 -12 -12 -12 -12 -12 -12 -12 -12 -12 -12 -12 -12 -12 -12 -12 -12 -12 -12 -11 -11 -12 -12 -12 -11 -11 -11 -12 -12 -12 -11 -11 -11 -11 -11 -11 -11 -10
-12 -12 -12 -12 -12 -12 -12 -12 -12 -12 -12 -12 -13 -13 -13 -12 -12 -12 -12 -12 -12 -12 -12 -12 -12 -12 -12 -12 -12 -13 -12 -12 -12 -12 -12 -12 -12 -11 -11 -12 -12 -12 -12 -12 -11 -11 -11 -10 -11
-12 -12 -12 -12 -12 -12 -12 -12 -12 -12 -12 -13 -13 -13 -13 -13 -13 -13 -13 -13 -12 -12 -12 -12 -12 -12 -12 -12 -12 -13 -13 -13 -12 -12 -12 -12 -12 -12 -12 -12 -12 -12 -13 -12 -12 -12 -11 -11 -11
-12 -12 -12 -12 -12 -13 -13 -13 -13 -12 -12 -12 -12 -12 -12 -12 -12 -12 -12 -12 -12 -12 -12 -12 -12 -12 -12 -12 -13 -12 -12 -13 -13 -11 -12 -12 -12 -12 -12 -12 -12 -12 -12 -13 -12 -12 -12 -12 -12
-12 -12 -12 -12 -13 -13 -13 -13 -13 -13 -12 -12 -12 -12 -12 -12 -12 -12 -13 -12 -13 -13 -12 -13 -13 -13 -12 -12 -12 -12 -12 -12 -12 -12 -12 -11 -12 -11 -12 -12 -13 -12 -13 -13 -13 -12 -12 -12 -12
-12 -12 -12 -13 -13 -13 -13 -12 -12 -12 -12 -12 -12 -13 -14 -15 -15 -15 -15 -15 -15 -14 -14 -14 -13 -13 -13 -13 -13 -12 -12 -12 -12 -12 -12 -13 -12 -12 -12 -11 -12 -12 -12 -13 -13 -13 -13 -13 -12
-13 -13 -13 -13 -13 -13 -12 -12 -12 -12 -12 -13 -13 -16 -17 -17 -17 -17 -17 -17 -17 -17 -17 -17 -16 -15 -14 -14 -13 -13 -12 -12 -12 -12 -12 -12 -13 -12 -12 -12 -12 -12 -12 -12 -13 -13 -13 -13 -13
-13 -13 -13 -13 -13 -13 -12 -12 -13 -13 -13 -14 -16 -16 -16 -17 -17 -17 -17 -17 -17 -17 -17 -17 -17 -17 -17 -15 -14 -13 -13 -12 -12 -12 -12 -12 -12 -12 -12 -13 -12 -12 -12 -12 -12 -13 -13 -13 -13
-13 -13 -13 -13 -13 -13 -13 -13 -13 -13 -13 -15 -16 -16 -16 -16 -17 -17 -17 -17 -17 -17 -17 -17 -17 -17 -18 -17 -17 -16 -14 -12 -12 -12 -12 -12 -12 -12 -13 -13 -14 -12 -13 -12 -13 -12 -14 -14 -14
-13 -14 -13 -13 -13 -13 -13 -13 -14 -14 -14 -16 -16 -16 -16 -16 -17 -17 -17 -17 -17 -17 -17 -17 -17 -17 -17 -18 -18 -17 -17 -15 -13 -12 -12 -12 -12 -13 -12 -12 -13 -12 -12 -12 -12 -12 -13 -13 -14
-13 -13 -13 -13 -14 -13 -13 -13 -14 -14 -16 -16 -16 -16 -17 -17 -17 -17 -17 -17 -17 -17 -17 -17 -17 -17 -16 -16 -17 -17 -17 -17 -16 -14 -13 -12 -12 -13 -13 -13 -12 -13 -12 -12 -12 -12 -12 -12 -13
-13 -14 -14 -13 -13 -14 -13 -14 -14 -15 -16 -16 -16 -16 -17 -17 -18 -18 -18 -18 -18 -18 -18 -18 -17 -17 -17 -17 -16 -16 -16 -16 -16 -17 -15 -14 -12 -12 -13 -14 -12 -13 -13 -12 -13 -12 -12 -12 -12
-14 -14 -14 -14 -14 -14 -14 -14 -15 -16 -17 -17 -16 -17 -18 -18 -18 -18 -18 -18 -18 -18 -18 -18 -18 -18 -18 -17 -17 -16 -16 -16 -16 -16 -16 -16 -14 -13 -13 -13 -14 -13 -14 -13 -12 -13 -12 -12 -13
-14 -14 -14 -14 -14 -14 -14 -15 -16 -17 -18 -18 -17 -18 -18 -18 -18 -18 -18 -18 -18 -19 -20 -20 -20 -20 -20 -19 -19 -17 -16 -16 -16 -16 -16 -16 -16 -15 -13 -13 -15 -13 -15 -14 -12 -13 -12 -12 -12
-15 -14 -15 -14 -14 -14 -15 -15 -17 -18 -18 -18 -18 -18 -18 -18 -18 -18 -18 -18 -19 -20 -21 -21 -21 -21 -20 -20 -20 -19 -18 -16 -16 -16 -16 -16 -16 -16 -15 -14 -14 -14 -14 -14 -12 -12 -13 -12 -12
-15 -15 -15 -15 -15 -14 -15 -16 -18 -18 -18 -18 -18 -18 -18 -18 -18 -18 -18 -19 -20 -21 -21 -21 -21 -21 -21 -21 -21 -20 -20 -18 -17 -16 -16 -17 -16 -16 -17 -16 -15 -16 -15 -13 -13 -12 -12 -12 -13
-15 -15 -15 -15 -15 -14 -16 -18 -18 -18 -18 -18 -18 -18 -18 -18 -18 -18 -19 -20 -20 -21 -21 -21 -21 -21 -22 -22 -22 -21 -21 -19 -18 -18 -17 -16 -17 -17 -16 -17 -16 -16 -14 -14 -13 -13 -13 -14 -13
-15 -15 -15 -15 -16 -15 -16 -17 -17 -17 -17 -18 -18 -18 -18 -18 -19 -18 -19 -20 -20 -21 -21 -21 -22 -22 -23 -23 -23 -22 -21 -20 -19 -18 -18 -17 -18 -18 -17 -18 -18 -16 -14 -14 -13 -14 -13 -13 -13
-16 -16 -16 -15 -16 -16 -16 -17 -17 -17 -17 -18 -18 -18 -18 -18 -18 -18 -19 -19 -20 -20 -20 -21 -22 -22 -23 -23 -23 -22 -21 -20 -19 -18 -18 -19 -19 -19 -18 -18 -18 -17 -16 -14 -13 -13 -13 -13 -13
-16 -16 -16 -16 -16 -17 -17 -18 -17 -17 -17 -17 -18 -18 -18 -19 -19 -18 -18 -19 -20 -20 -21 -21 -22 -22 -23 -24 -24 -22 -21 -20 -19 -19 -19 -20 -20 -20 -19 -18 -18 -19 -16 -15 -15 -14 -13 -14 -14
Height
5771 5773 5774 5774 5778 5777 5777 5778 5778 5779 5782 5782 5784 5784 5791 5794 5794 5797 5799 5802 5800 5799 5800 5801 5803 5803 5805 5805 5806 5808 5808 5809 5811 5813 5814 5815 5816 5816 5816 5817 5818 5819 5820 5820 5821 5823 5825 5826 5827
5767 5765 5767 5769 5773 5772 5771 5771 5771 5773 5775 5779 5782 5781 5786 5789 5791 5790 5794 5797 5798 5796 5797 5797 5799 5799 5801 5802 5801 5804 5805 5805 5807 5808 5811 5812 5813 5814 5814 5814 5815 5814 5816 5817 5818 5819 5821 5823 5824
5770 5767 5766 5766 5767 5767 5766 5766 5765 5769 5774 5778 5779 5780 5780 5784 5785 5786 5787 5793 5793 5792 5794 5792 5795 5795 5797 5799 5797 5799 5801 5802 5803 5805 5806 5809 5810 5810 5812 5812 5812 5812 5812 5813 5813 5815 5817 5819 5821
5771 5768 5763 5762 5763 5763 5763 5764 5765 5768 5771 5774 5774 5775 5776 5777 5779 5781 5782 5786 5787 5787 5788 5788 5790 5790 5791 5794 5795 5794 5796 5798 5799 5800 5802 5804 5806 5807 5808 5809 5809 5809 5809 5809 5810 5811 5813 5815 5816
5769 5765 5762 5760 5761 5763 5761 5764 5765 5764 5768 5770 5770 5771 5771 5770 5772 5774 5777 5778 5781 5782 5782 5783 5784 5785 5786 5787 5790 5790 5790 5792 5794 5795 5797 5799 5801 5804 5804 5806 5807 5806 5806 5806 5806 5807 5808 5810 5812
5769 5766 5765 5762 5763 5764 5762 5762 5765 5766 5768 5768 5766 5766 5767 5769 5769 5770 5773 5773 5775 5776 5776 5776 5778 5779 5780 5781 5782 5784 5785 5785 5787 5789 5791 5793 5795 5797 5800 5801 5803 5804 5803 5803 5802 5804 5805 5806 5807
5769 5767 5766 5764 5764 5763 5762 5762 5764 5764 5765 5765 5764 5763 5765 5764 5766 5767 5768 5769 5770 5769 5769 5768 5769 5771 5773 5774 5775 5776 5778 5779 5780 5781 5783 5786 5789 5790 5792 5795 5796 5799 5799 5799 5799 5800 5801 5803 5803
5769 5768 5766 5765 5764 5763 5763 5762 5763 5763 5763 5763 5762 5762 5761 5761 5761 5760 5761 5761 5762 5762 5762 5761 5761 5762 5763 5766 5768 5768 5770 5771 5773 5773 5775 5777 5780 5783 5785 5786 5789 5792 5792 5794 5793 5794 5795 5798 5799
5768 5768 5766 5765 5764 5763 5762 5762 5762 5761 5761 5760 5760 5759 5759 5758 5756 5755 5754 5754 5756 5755 5755 5756 5755 5754 5754 5757 5759 5762 5762 5762 5763 5766 5767 5769 5772 5774 5777 5779 5780 5784 5785 5787 5787 5788 5789 5792 5793
5767 5766 5765 5764 5763 5762 5762 5762 5761 5760 5757 5756 5754 5753 5753 5753 5751 5751 5750 5748 5747 5746 5747 5747 5748 5747 5746 5747 5749 5752 5752 5751 5754 5756 5758 5760 5763 5765 5767 5770 5771 5774 5777 5780 5779 5781 5782 5786 5786
5765 5764 5763 5761 5760 5759 5758 5757 5756 5754 5753 5752 5749 5746 5746 5747 5745 5744 5743 5742 5740 5738 5738 5739 5738 5738 5738 5738 5739 5741 5741 5741 5744 5746 5748 5750 5752 5755 5758 5761 5763 5765 5768 5771 5773 5774 5775 5777 5780
5762 5761 5760 5758 5756 5755 5754 5751 5750 5747 5749 5747 5745 5742 5738 5736 5736 5736 5736 5733 5732 5731 5729 5728 5729 5729 5728 5728 5728 5729 5729 5730 5732 5735 5738 5740 5741 5744 5748 5750 5753 5754 5758 5761 5763 5765 5767 5768 5772
5758 5758 5756 5754 5752 5750 5749 5746 5746 5743 5742 5740 5738 5735 5732 5730 5726 5724 5723 5722 5720 5720 5719 5718 5717 5718 5718 5718 5718 5718 5719 5720 5721 5725 5728 5731 5732 5735 5737 5739 5742 5744 5747 5751 5755 5756 5758 5762 5763
5753 5751 5750 5748 5747 5746 5744 5740 5740 5738 5736 5733 5730 5726 5722 5718 5715 5712 5709 5707 5707 5704 5703 5703 5703 5703 5704 5705 5706 5706 5708 5709 5711 5710 5710 5718 5720 5724 5724 5728 5731 5734 5737 5741 5744 5746 5748 5752 5756
5748 5747 5744 5743 5742 5741 5739 5736 5734 5731 5727 5723 5719 5714 5707 5703 5699 5692 5689 5688 5688 5687 5686 5685 5685 5685 5686 5687 5689 5691 5693 5696 5698 5699 5702 5703 5707 5711 5713 5715 5719 5723 5725 5728 5732 5733 5737 5742 5747
5744 5742 5739 5737 5737 5735 5733 5728 5725 5722 5717 5711 5705 5698 5691 5684 5679 5675 5671 5667 5664 5664 5665 5665 5664 5665 5666 5668 5670 5673 5675 5678 5682 5685 5688 5690 5693 5693 5700 5702 5706 5709 5711 5716 5721 5724 5726 5731 5734
5738 5736 5734 5732 5730 5728 5724 5719 5715 5712 5707 5700 5689 5681 5677 5673 5669 5665 5661 5658 5655 5652 5648 5645 5645 5645 5645 5646 5649 5652 5656 5660 5664 5668 5672 5676 5678 5678 5684 5688 5691 5695 5696 5700 5707 5712 5717 5722 5725
5733 5731 5728 5727 5724 5720 5715 5712 5708 5703 5697 5687 5679 5672 5667 5663 5659 5656 5652 5648 5645 5642 5638 5635 5632 5628 5625 5625 5626 5630 5634 5640 5644 5650 5655 5659 5663 5667 5670 5672 5676 5681 5685 5686 5691 5698 5704 5710 5714
5727 5726 5723 5720 5718 5715 5710 5704 5700 5692 5684 5676 5670 5665 5660 5655 5650 5644 5640 5637 5633 5628 5624 5620 5617 5613 5608 5606 5604 5605 5609 5615 5622 5628 5634 5641 5646 5650 5655 5657 5662 5666 5671 5678 5679 5684 5689 5696 5703
5723 5721 5719 5716 5712 5709 5704 5697 5692 5684 5674 5668 5662 5657 5650 5644 5638 5632 5626 5620 5615 5610 5605 5601 5598 5595 5593 5589 5585 5584 5585 5590 5595 5603 5611 5619 5625 5630 5638 5644 5647 5653 5657 5661 5667 5671 5677 5682 5689
5717 5715 5713 5711 5707 5701 5698 5692 5685 5676 5666 5659 5653 5646 5639 5634 5628 5622 5616 5609 5602 5595 5589 5583 5577 5572 5569 5566 5565 5563 5562 5564 5570 5577 5584 5593 5601 5609 5618 5626 5634 5640 5644 5648 5655 5659 5666 5671 5674
5710 5709 5707 5703 5700 5695 5688 5684 5674 5666 5659 5651 5643 5637 5631 5623 5616 5610 5603 5597 5588 5580 5571 5562 5557 5551 5546 5541 5539 5540 5540 5543 5547 5552 5558 5566 5576 5587 5597 5607 5617 5624 5628 5631 5641 5649 5654 5658 5662
5705 5702 5700 5696 5692 5688 5680 5673 5664 5657 5651 5643 5635 5630 5623 5617 5609 5601 5591 5580 5570 5559 5547 5538 5532 5528 5524 5517 5514 5514 5517 5521 5525 5530 5536 5541 5551 5564 5573 5585 5599 5608 5616 5620 5630 5635 5641 5648 5650
5698 5695 5693 5690 5685 5681 5672 5663 5657 5647 5642 5634 5628 5624 5616 5609 5598 5588 5577 5565 5552 5538 5528 5520 5512 5505 5498 5495 5492 5489 5490 5495 5500 5508 5516 5522 5529 5539 5550 5561 5579 5591 5601 5607 5618 5624 5628 5636 5638
5692 5690 5687 5685 5678 5673 5665 5657 5646 5639 5636 5628 5622 5616 5607 5596 5586 5576 5564 5550 5536 5524 5514 5503 5494 5487 5480 5475 5471 5467 5466 5468 5476 5484 5493 5502 5509 5518 5530 5539 5555 5573 5584 5594 5604 5612 5618 5623 5628
5686 5684 5682 5677 5672 5667 5658 5644 5637 5635 5629 5623 5617 5606 5597 5589 5578 5567 5554 5537 5523 5512 5501 5490 5480 5471 5461 5455 5449 5446 5444 5445 5451 5459 5471 5482 5490 5498 5508 5518 5533 5553 5567 5581 5589 5599 5605 5611 5617
5681 5678 5676 5670 5665 5658 5650 5640 5634 5628 5622 5617 5608 5600 5591 5582 5571 5558 5544 5529 5517 5506 5493 5481 5469 5456 5445 5436 5429 5424 5421 5422 5428 5437 5447 5460 5470 5480 5489 5499 5511 5532 5553 5566 5576 5589 5593 5600 5607
5675 5674 5670 5664 5656 5650 5645 5635 5628 5624 5617 5611 5603 5594 5585 5575 5563 5552 5537 5523 5510 5496 5484 5471 5459 5446 5431 5420 5410 5405 5401 5401 5408 5417 5429 5440 5451 5462 5473 5485 5495 5513 5535 5549 5563 5576 5584 5591 5596
5670 5668 5664 5659 5651 5644 5637 5631 5623 5619 5613 5606 5597 5588 5579 5569 5558 5546 5532 5517 5504 5491 5477 5464 5450 5436 5421 5408 5399 5389 5383 5385 5391 5402 5413 5425 5437 5449 5461 5472 5483 5496 5517 5535 5550 5565 5575 5583 5584
5664 5661 5657 5652 5647 5640 5633 5627 5618 5613 5608 5600 5592 5584 5575 5566 5554 5540 5526 5513 5501 5488 5472 5457 5443 5428 5414 5404 5394 5384 5378 5377 5380 5389 5400 5414 5428 5439 5450 5460 5474 5485 5504 5526 5546 5559 5565 5573 5574
Wind_Speed
17 21 23 25 25 21 23 27 32 35 32 31 30 33 29 29 29 34 32 26 29 27 22 23 26 24 26 23 24 24 26 27 28 28 28 26 25 25 25 25 24 23 23 23 22 22 22 21 21
8 15 20 22 22 25 27 31 34 37 38 34 32 34 29 30 29 32 31 29 31 30 26 24 26 25 26 26 24 26 27 28 31 30 29 28 27 27 26 26 26 25 25 24 24 23 23 22 21
14 11 6 17 20 21 26 23 26 27 22 18 26 31 33 29 29 32 31 27 28 31 31 27 28 27 26 26 26 26 28 28 31 32 32 32 31 29 29 28 27 26 25 25 25 25 25 24 23
9 13 8 9 6 10 13 15 20 16 20 14 20 24 28 26 28 29 29 27 28 32 32 30 29 27 28 27 27 28 29 30 31 32 34 33 33 32 31 30 29 28 27 27 28 27 26 26 25
9 13 15 5 6 7 9 15 15 6 19 11 11 19 26 28 28 26 29 28 28 31 35 32 32 31 29 30 30 29 30 31 32 32 35 36 34 34 33 32 31 29 29 29 29 29 27 27 26
10 11 11 12 7 7 7 10 13 14 5 12 20 20 22 27 29 29 29 31 30 30 32 35 36 35 34 32 31 32 33 32 33 33 34 37 38 36 36 33 33 32 31 31 31 30 29 28 27
9 10 10 9 9 6 8 9 2 7 9 10 9 9 21 26 23 27 30 30 31 31 33 35 36 37 39 38 34 33 36 36 35 35 35 36 39 40 38 36 36 34 34 34 33 31 30 29 28
7 6 6 6 5 4 5 4 5 6 8 9 11 12 11 13 15 17 22 34 36 34 31 31 31 39 39 40 38 36 37 39 39 38 38 39 40 41 43 41 39 37 37 34 35 34 33 30 30
7 6 6 5 4 4 5 5 7 10 13 13 12 13 13 14 17 20 23 27 28 28 34 44 39 34 42 41 41 33 41 41 41 41 40 39 40 41 42 44 43 41 40 39 38 35 34 32 30
8 8 9 7 6 6 8 11 12 13 16 16 19 20 18 19 23 24 26 29 31 32 33 37 39 36 37 48 45 42 42 45 44 43 43 42 40 40 43 43 42 43 44 43 42 40 37 34 32
9 9 10 11 10 10 11 12 12 15 18 19 24 28 27 24 25 27 29 31 35 36 37 35 35 38 40 36 48 51 50 45 37 42 44 44 45 43 41 42 44 43 43 44 45 43 39 35 35
9 10 12 14 14 14 15 17 18 21 18 21 24 27 32 35 34 33 32 35 39 40 40 40 39 38 39 43 44 53 54 57 55 43 45 47 47 46 46 44 44 44 44 44 44 43 45 39 37
12 13 16 17 17 16 15 19 17 22 23 26 29 34 37 39 42 44 44 44 44 45 46 46 47 45 43 42 43 49 52 54 58 59 51 48 44 48 49 49 47 45 44 44 44 45 44 42 40
14 15 17 16 15 14 15 23 22 27 28 32 36 41 46 50 52 54 55 54 54 53 54 54 54 54 52 51 50 49 50 52 50 46 59 57 51 51 53 52 51 50 46 46 46 47 46 43 42
15 17 18 18 15 15 18 23 27 31 37 43 48 53 57 59 61 65 65 65 64 63 63 62 62 61 60 60 59 57 56 54 53 54 49 54 53 53 51 51 54 53 51 50 51 50 50 46 44
15 16 17 16 14 17 20 27 32 38 46 52 56 61 54 44 38 36 35 39 48 56 60 63 67 68 69 68 67 66 65 63 60 58 55 55 52 55 61 56 62 56 56 55 54 54 53 49 48
17 17 16 16 18 22 26 32 38 43 50 54 56 43 35 36 34 33 35 37 39 39 42 47 51 59 68 74 75 74 74 72 69 66 63 61 65 41 55 65 57 62 60 59 57 57 55 52 51
16 15 16 17 20 25 30 36 41 49 49 54 39 36 36 36 36 38 39 40 39 41 42 46 51 55 60 64 72 80 80 78 77 74 70 68 68 64 62 55 59 57 60 65 67 60 59 56 54
16 15 16 19 21 25 30 38 45 50 53 42 35 37 35 38 41 44 45 45 46 46 47 47 48 50 53 55 65 70 79 86 83 80 78 75 73 72 66 61 68 61 58 59 71 61 64 60 56
17 17 20 22 25 28 33 41 48 50 48 37 37 39 39 39 41 44 47 50 52 53 53 52 52 52 54 58 62 63 69 75 84 88 85 81 79 76 72 68 66 66 56 56 66 68 65 63 62
18 19 22 23 26 31 35 41 47 47 41 36 41 40 38 37 39 41 44 48 50 53 56 58 60 62 62 59 60 65 65 68 72 83 89 89 85 83 76 71 69 70 76 61 63 71 67 60 63
20 22 23 26 29 32 38 44 48 42 36 36 38 36 37 39 41 41 42 46 53 56 64 62 60 63 64 66 65 63 66 65 64 71 80 89 92 89 86 83 76 76 62 65 61 64 59 72 67
21 22 24 27 31 34 41 46 42 38 34 33 31 35 35 39 42 44 48 55 59 64 65 60 61 61 63 64 65 66 66 69 66 64 65 75 90 94 94 89 80 78 71 65 65 58 70 74 69
22 25 27 28 32 36 43 47 42 37 35 33 31 32 36 40 45 49 52 61 66 64 55 54 58 54 52 52 55 63 66 69 72 68 65 66 72 89 97 95 90 83 69 72 59 57 63 63 64
23 26 28 30 33 39 46 52 35 32 32 33 32 34 40 46 48 49 56 61 56 49 49 54 50 49 52 51 52 53 61 67 73 69 68 68 67 69 86 96 93 88 84 77 72 61 58 57 55
23 26 27 32 36 40 49 47 29 26 31 32 31 39 44 44 45 50 54 52 46 39 38 44 47 50 53 55 55 53 58 60 66 74 75 69 70 69 70 82 95 86 87 73 72 68 61 50 50
25 26 28 32 37 45 41 25 23 32 33 31 36 40 42 44 45 46 50 44 41 44 40 41 38 40 42 44 44 48 50 58 60 65 68 72 69 73 70 72 84 92 80 71 73 70 62 62 53
24 25 29 32 38 41 25 27 29 30 33 32 35 39 39 44 45 43 48 44 45 44 41 41 41 43 40 37 37 40 46 51 55 57 62 66 67 70 68 70 71 85 89 76 77 65 55 63 58
23 24 28 31 33 30 31 27 28 30 35 35 37 39 39 42 44 43 46 43 41 42 40 40 38 43 37 31 26 29 25 38 47 51 57 58 60 58 62 63 68 68 93 90 83 75 68 59 61
22 25 26 30 32 25 30 27 28 32 33 37 37 37 39 40 44 47 46 48 40 44 46 44 42 39 37 32 31 26 14 20 35 47 52 57 53 51 52 53 62 60 84 89 71 54 54 58 48
Wind_Direction
281 261 254 256 250 253 266 264 257 256 250 247 243 248 248 247 242 250 248 252 270 273 267 254 255 252 253 250 249 247 242 237 240 241 238 236 237 234 232 230 228 231 232 234 233 236 238 238 243
346 256 252 247 249 265 265 262 256 251 251 254 254 253 246 246 248 249 254 256 259 268 269 263 255 253 250 250 250 248 244 241 238 239 242 241 241 242 238 234 232 229 232 235 237 238 239 241 243
37 45 272 244 251 269 268 254 252 249 256 276 266 255 255 245 244 251 256 252 255 260 264 267 260 254 252 250 249 251 251 247 244 240 239 243 245 245 242 238 235 234 233 236 237 239 240 243 244
25 24 27 221 243 306 260 242 236 258 252 247 246 246 250 248 246 246 252 256 252 252 253 255 257 253 253 252 250 248 251 251 246 244 244 242 245 245 245 242 240 239 239 240 241 240 242 243 243
29 34 43 67 42 318 246 240 262 224 225 226 241 243 242 243 241 241 248 251 248 249 254 255 255 256 254 251 253 251 249 249 251 247 245 246 245 245 246 247 245 243 243 243 244 243 242 243 245
32 39 43 71 78 51 16 245 257 274 314 279 261 245 246 248 249 245 245 250 247 246 250 252 254 255 253 252 250 252 252 248 247 249 249 248 246 245 247 247 250 249 247 245 245 246 246 244 244
29 32 55 58 65 47 25 105 46 269 275 291 288 300 265 255 258 258 255 255 255 247 245 249 252 252 254 254 251 249 250 249 249 246 246 249 249 248 246 246 247 251 254 253 252 250 250 250 248
19 29 38 60 60 36 21 15 293 291 298 294 293 301 298 269 278 277 268 251 254 253 253 256 261 255 249 251 252 251 251 248 247 246 245 244 246 247 248 246 248 250 252 254 255 255 254 253 252
360 2 356 6 8 347 328 305 289 291 293 292 297 292 287 278 266 262 263 272 259 259 262 257 262 262 254 250 248 246 255 252 247 246 245 246 247 247 247 248 248 248 249 250 253 255 258 255 256
347 348 336 329 315 298 286 281 278 279 278 288 291 290 280 273 268 267 269 268 266 264 257 256 256 263 268 251 248 241 244 247 247 245 244 244 245 246 248 246 246 248 249 250 250 252 253 256 254
330 335 332 326 317 306 299 292 291 287 291 301 298 300 296 287 276 269 265 266 266 265 263 257 257 254 250 254 251 243 240 241 233 246 246 244 243 245 246 249 249 248 249 252 256 256 254 251 253
313 315 320 322 316 315 313 313 314 306 311 306 301 298 298 297 290 282 272 265 264 264 264 263 259 255 252 249 251 245 244 244 248 241 244 247 242 242 243 245 248 247 248 249 250 252 254 249 248
306 306 310 318 317 320 318 308 315 312 313 305 299 293 288 284 285 283 278 272 268 264 262 261 261 257 253 250 250 247 245 252 250 247 242 241 245 247 244 243 244 247 246 248 250 249 248 249 247
297 303 309 311 314 325 321 308 316 308 302 295 290 285 284 283 279 275 275 273 268 263 261 260 258 258 256 253 250 248 247 248 248 249 242 252 238 243 245 242 244 244 245 246 246 248 247 245 244
299 309 313 314 323 312 309 303 305 304 303 301 296 293 291 286 281 279 275 270 268 265 261 259 258 255 255 254 252 250 248 246 245 247 252 246 246 241 239 243 243 244 243 242 243 244 247 246 247
300 304 303 305 303 300 300 304 306 304 305 305 306 300 296 293 288 284 286 287 280 273 262 256 255 254 253 251 250 250 250 247 243 244 243 251 242 249 247 236 247 246 244 243 244 246 245 244 244
306 305 301 306 306 307 308 310 309 309 309 310 309 302 301 299 301 303 302 302 297 293 288 279 265 256 253 251 249 248 247 248 247 243 242 242 246 250 242 240 236 247 243 245 240 245 248 246 245
297 295 297 301 306 310 312 312 309 312 316 314 309 305 298 294 293 293 293 293 290 287 285 279 277 276 271 254 249 248 247 246 247 246 244 240 242 243 248 247 250 230 238 249 250 242 244 245 245
294 293 296 301 305 313 312 313 314 319 322 312 303 305 301 294 292 291 290 289 284 285 286 283 279 279 277 271 264 251 245 245 244 244 244 243 241 243 243 243 251 238 242 242 241 249 241 243 245
297 303 302 308 308 310 316 317 322 323 317 307 307 308 305 300 298 298 298 296 293 290 289 286 283 278 271 267 268 263 256 245 242 241 242 241 242 240 242 241 244 248 237 241 235 243 245 242 241
303 302 302 307 310 313 315 318 325 323 310 305 309 313 312 308 302 298 296 295 295 295 292 287 283 280 277 272 261 261 259 253 247 240 239 238 237 238 239 233 238 243 247 250 234 236 244 245 245
303 301 301 305 308 315 316 318 328 317 302 307 311 312 311 315 315 310 304 302 300 299 296 287 282 282 279 276 268 258 256 253 251 246 240 235 234 234 235 229 237 238 247 252 253 238 235 246 249
303 299 300 308 313 317 320 323 324 308 302 312 315 318 316 318 315 314 310 311 307 305 302 291 287 285 281 276 269 261 252 251 250 247 245 239 234 231 233 233 229 235 235 244 245 249 235 243 239
305 304 306 310 314 321 324 326 321 304 310 320 321 318 323 321 324 321 316 314 313 309 301 300 297 287 281 276 270 263 256 246 244 243 245 243 238 233 230 231 226 231 230 239 244 248 242 241 246
306 306 307 310 319 325 323 325 313 306 318 318 323 329 331 334 327 324 322 317 314 314 304 305 299 289 284 279 278 269 258 248 239 240 239 237 239 237 233 230 226 226 230 234 237 239 243 243 244
307 307 315 320 324 325 327 323 317 323 323 326 331 338 337 335 331 329 326 327 325 328 327 319 307 297 290 286 280 269 259 252 241 236 237 234 235 234 234 234 229 219 226 228 231 236 237 240 247
308 310 315 322 326 329 334 332 341 334 330 330 340 339 338 337 335 335 339 335 330 325 326 330 335 316 300 289 280 265 260 252 243 237 233 232 233 233 233 231 231 219 216 221 223 230 239 244 245
308 310 318 326 333 333 351 339 343 340 336 339 344 342 341 342 342 338 347 340 335 336 332 328 326 329 313 305 293 279 263 254 241 233 231 227 228 229 231 231 230 223 210 216 221 225 232 244 244
305 308 320 328 336 328 337 340 343 339 334 342 347 344 345 348 345 346 351 349 348 345 346 347 332 337 333 328 323 312 261 242 232 230 225 223 221 222 227 230 231 224 214 214 222 226 236 246 252
304 308 322 332 332 324 331 344 340 339 338 342 346 343 345 345 349 351 350 354 350 350 349 343 347 341 344 347 345 342 295 254 229 223 219 214 216 222 227 226 229 225 215 215 220 225 223 236 244